全球星 M080星 (GLOBALSTAR M080)

导读

GLOBALSTAR M080是Globalstar公司运营的低轨移动通信卫星,隶属于第二代M-CLASS卫星星座。该卫星于2011年12月28日发射,运行在约1414公里高度的近极地轨道。它主要提供语音和数据通信服务,支持偏远地区手持终端连接,提升了系统容量与可靠性,服务于应急通信、海上、航空等多应用场景,目前仍在轨运行。

基本信息
目录编号:
38041
目录名称:
GLOBALSTAR M080
国际标识:
2011-080B
轨道中心:
EARTH
卫星名称:
全球星 M080星
卫星全名:
全球星 M080星 (GLOBALSTAR M080)
卫星状态:
在轨 (已飞行5371 天)
发射日期:
2011-12-28 UTC
国别 :
(GLOB)
星等 :
--
轨道信息
数据来源 国际轨道数据 AOE轨道数据
星历时间 2026-09-10T07:27:39+0800
1天前
查看轨道信息
2026-09-10T23:00:00+0800
12小时前
查看轨道信息
半长轴 7791.773km 7791.774km
偏心率 0.0001146 0.0001142
轨道倾角 52.005° 52.004°
近地点辐角 81.433° 75.429°
升交点赤经 120.902° 118.931°
平近点角 27.563° 97.186°
近地点 1412.743km 1412.747km
远地点 1414.529km 1414.527km
周期 114.081分钟 114.081分钟
每日圈数 12.622586 12.622584
详细信息
固有亮度:
5
最大亮度:
7.2
平衡模式:
三轴稳定
覆盖范围:
全球
运营商:
全球星公司
运营商所在国:
美国
使用方式:
暂无
卫星简介
全球星星座由48颗卫星加8颗备份星组成。这些卫星分布在8个倾角为52度的圆形轨道平面上,每个轨道平面6颗卫星,另有1 颗备用星。轨道高度约为1414km,传输时延和处理时延小于300ms,整个系统的覆盖区为南北纬70度以内的地区。该卫星仍在工作。
2D轨道图
3D轨道图
轨道高度分析图
轨道倾角分析图
轨道综合分析图
查看轨道综合分析图
交会数据列表
事件ID 空间交会对象 最接近时刻(TCA) 交会距离 交会风险概率(CRP) 交会风险指数(CRI) 操作
CDM_260911-210602-073903-804126
2026-09-11T
21:06:31+0000
1.889 km
极远距离
2.856482E-6 低风险 0.44
与全量物体交会距离演化趋势
与全量物体交会风险概率演化趋势